Time,TemperatureF,DewpointF,PressureIn,WindDirection,WindDirectionDegrees,WindSpeedMPH,WindSpeedGustMPH,Humidity,HourlyPrecipIn,Conditions,Clouds,dailyrainin,SoftwareType,DateUTC
2016-07-27 00:03:00,76.0,74.0,29.99,SSE,155,-999.9,-999.0,92,-99.99,,,-99.99,,2016-07-27 04:03:00,
2016-07-27 00:11:00,75.0,73.0,29.99,North,-9999,-999.9,-999.0,92,-99.99,,,-99.99,,2016-07-27 04:11:00,
2016-07-27 00:21:00,75.0,73.0,29.99,SSE,155,0.0,-999.0,92,-99.99,,,-99.99,,2016-07-27 04:21:00,
2016-07-27 00:31:00,75.0,73.0,29.99,SSE,155,-999.9,-999.0,92,-99.99,,,-99.99,,2016-07-27 04:31:00,
2016-07-27 00:43:00,75.0,73.0,29.99,SSE,155,-999.9,-999.0,92,-99.99,,,-99.99,,2016-07-27 04:43:00,
2016-07-27 01:15:00,75.0,73.0,29.99,SSE,155,-999.9,-999.0,92,-99.99,,,-99.99,,2016-07-27 05:15:00,
2016-07-27 01:22:00,75.0,73.0,29.99,ESE,106,0.0,-999.0,93,-99.99,,,-99.99,,2016-07-27 05:22:00,
2016-07-27 01:35:00,75.0,73.0,29.99,ESE,106,0.0,-999.0,93,-99.99,,,-99.99,,2016-07-27 05:35:00,
2016-07-27 02:01:00,75.0,73.0,29.98,ESE,103,0.0,-999.0,93,-99.99,,,-99.99,,2016-07-27 06:01:00,
2016-07-27 02:13:00,75.0,73.0,29.98,ESE,103,-999.9,-999.0,93,-99.99,,,-99.99,,2016-07-27 06:13:00,
2016-07-27 02:22:00,75.0,73.0,29.98,ESE,103,0.0,-999.0,93,-99.99,,,-99.99,,2016-07-27 06:22:00,
2016-07-27 02:36:00,74.0,72.0,29.98,ESE,103,0.0,0.0,93,-99.99,,,-99.99,,2016-07-27 06:36:00,
2016-07-27 02:45:00,74.0,72.0,29.98,ESE,103,0.0,0.0,93,-99.99,,,-99.99,,2016-07-27 06:45:00,
2016-07-27 03:08:00,74.0,72.0,29.97,ESE,103,0.0,0.0,93,-99.99,,,-99.99,,2016-07-27 07:08:00,
2016-07-27 03:25:00,74.0,72.0,29.97,ESE,103,0.0,0.0,93,-99.99,,,-99.99,,2016-07-27 07:25:00,
2016-07-27 03:37:00,74.0,72.0,29.98,ESE,103,0.0,0.0,93,-99.99,,,-99.99,,2016-07-27 07:37:00,
2016-07-27 03:46:00,74.0,72.0,29.97,ESE,103,0.0,0.0,93,-99.99,,,-99.99,,2016-07-27 07:46:00,
2016-07-27 03:54:00,74.0,72.0,29.98,ESE,103,0.0,0.0,93,-99.99,,,-99.99,,2016-07-27 07:54:00,
2016-07-27 04:04:00,74.0,72.0,29.98,ESE,103,0.0,0.0,93,-99.99,,,-99.99,,2016-07-27 08:04:00,
2016-07-27 04:13:00,74.0,72.0,29.98,ESE,103,0.0,0.0,93,-99.99,,,-99.99,,2016-07-27 08:13:00,
2016-07-27 04:23:00,74.0,72.0,29.97,East,94,0.0,1.0,93,-99.99,,,-99.99,,2016-07-27 08:23:00,
2016-07-27 04:35:00,74.0,72.0,29.98,East,94,0.0,0.0,93,-99.99,,,-99.99,,2016-07-27 08:35:00,
2016-07-27 04:44:00,74.0,72.0,29.98,East,94,0.0,0.0,93,-99.99,,,-99.99,,2016-07-27 08:44:00,
2016-07-27 04:54:00,74.0,72.0,29.97,East,94,0.0,0.0,93,-99.99,,,-99.99,,2016-07-27 08:54:00,
2016-07-27 05:03:00,74.0,72.0,29.97,East,94,0.0,0.0,93,-99.99,,,-99.99,,2016-07-27 09:03:00,
2016-07-27 05:13:00,74.0,72.0,29.97,East,94,0.0,0.0,93,-99.99,,,-99.99,,2016-07-27 09:13:00,
2016-07-27 05:23:00,74.0,72.0,29.97,East,94,0.0,0.0,93,-99.99,,,-99.99,,2016-07-27 09:23:00,
2016-07-27 06:00:00,73.0,71.0,29.97,ESE,123,0.0,-999.0,93,-99.99,,,-99.99,,2016-07-27 10:00:00,
2016-07-27 06:11:00,73.0,71.0,29.97,ESE,123,-999.9,-999.0,93,-99.99,,,-99.99,,2016-07-27 10:11:00,
2016-07-27 06:20:00,73.0,71.0,29.98,ESE,123,0.0,-999.0,93,-99.99,,,-99.99,,2016-07-27 10:20:00,
2016-07-27 06:31:00,73.0,71.0,29.98,ESE,123,0.0,-999.0,93,-99.99,,,-99.99,,2016-07-27 10:31:00,
2016-07-27 06:41:00,73.0,71.0,29.98,East,86,-999.9,-999.0,93,-99.99,,,-99.99,,2016-07-27 10:41:00,
2016-07-27 06:52:00,73.0,71.0,29.98,East,86,0.0,-999.0,93,-99.99,,,-99.99,,2016-07-27 10:52:00,
2016-07-27 07:01:00,73.0,71.0,29.98,East,86,0.0,-999.0,93,-99.99,,,-99.99,,2016-07-27 11:01:00,
2016-07-27 07:12:00,73.0,71.0,29.99,East,86,-999.9,-999.0,93,-99.99,,,-99.99,,2016-07-27 11:12:00,
2016-07-27 07:22:00,73.0,71.0,29.99,East,86,0.0,-999.0,93,-99.99,,,-99.99,,2016-07-27 11:22:00,
2016-07-27 07:32:00,73.0,71.0,30.00,East,86,0.0,-999.0,93,-99.99,,,-99.99,,2016-07-27 11:32:00,
2016-07-27 07:42:00,73.0,71.0,30.00,East,86,-999.9,-999.0,93,-99.99,,,-99.99,,2016-07-27 11:42:00,
2016-07-27 07:48:00,73.0,71.0,30.00,East,86,0.0,-999.0,93,-99.99,,,-99.99,,2016-07-27 11:48:00,
2016-07-27 08:13:00,73.0,71.0,30.00,East,86,0.0,-999.0,93,-99.99,,,-99.99,,2016-07-27 12:13:00,
2016-07-27 08:27:00,74.0,72.0,30.01,East,86,0.0,0.0,93,-99.99,,,-99.99,,2016-07-27 12:27:00,
2016-07-27 08:39:00,74.0,72.0,30.01,East,84,0.0,0.0,93,-99.99,,,-99.99,,2016-07-27 12:39:00,
2016-07-27 08:49:00,74.0,72.0,30.01,East,84,0.0,-999.0,93,-99.99,,,-99.99,,2016-07-27 12:49:00,
2016-07-27 09:01:00,74.0,72.0,30.01,East,84,0.0,1.0,93,-99.99,,,-99.99,,2016-07-27 13:01:00,
2016-07-27 09:09:00,74.0,72.0,30.01,NW,325,0.0,0.0,93,-99.99,,,-99.99,,2016-07-27 13:09:00,
2016-07-27 09:16:00,75.0,73.0,30.01,NNW,329,0.0,0.0,93,-99.99,,,-99.99,,2016-07-27 13:16:00,
2016-07-27 09:27:00,75.0,73.0,30.01,NW,309,0.0,0.0,93,-99.99,,,-99.99,,2016-07-27 13:27:00,
2016-07-27 09:39:00,75.0,73.0,30.01,NNW,329,1.0,3.0,93,-99.99,,,-99.99,,2016-07-27 13:39:00,
2016-07-27 09:46:00,76.0,74.0,30.01,WNW,292,1.0,3.0,93,-99.99,,,-99.99,,2016-07-27 13:46:00,
2016-07-27 09:55:00,76.0,74.0,30.01,NW,310,1.0,-999.0,93,-99.99,,,-99.99,,2016-07-27 13:55:00,
2016-07-27 10:05:00,76.0,74.0,30.01,NW,322,0.0,3.0,92,-99.99,,,-99.99,,2016-07-27 14:05:00,
2016-07-27 10:15:00,76.0,74.0,30.01,North,349,2.0,4.0,92,-99.99,,,-99.99,,2016-07-27 14:15:00,
2016-07-27 10:23:00,77.0,74.0,30.00,NNW,340,1.0,-999.0,91,-99.99,,,-99.99,,2016-07-27 14:23:00,
2016-07-27 10:34:00,77.0,74.0,30.01,NNW,343,1.0,3.0,90,-99.99,,,-99.99,,2016-07-27 14:34:00,